Torna al catalogo

STARLINK-30261

AttivoComunicazioniVLEO
NORAD 57523·PAYLOAD·🇺🇸 United States

Lanciato Aug 8, 2023 da Vandenberg Space Force Base

Loading…

Prossimi Passaggi (prossime 24 ore)

TLE

AggiornatoSource: CelesTrak SupGP

Epoca: Sep 14, 2026, 20:53 UTC

1 57523C 23115C   26257.87062500 -.00009307  00000+0 -33695-3 0  2570
2 57523  43.0025  13.4293 0001375 267.6548  12.0382 15.27597314    15

Traccia STARLINK-30261 in tempo reale con AllMySat

Download on the App Store